Port Angeles, WA
on Monday, November 12, 2012

Monday
Previous Day Next Day
Daily Summary
 ActualAverageRecord
Temperature
Mean Temperature °F °F  
Max Temperature 53°F 50°F 60°F (1991)
Min Temperature 43°F 39°F 15°F (1955)
Degree Days
Heating Degree Days 17    
Moisture
Dew Point 43°F   
Average Humidity 88    
Maximum Humidity 97    
Minimum Humidity 71    
Precipitation
Precipitation 0.00 in in in ()
Wind
Wind Speed 4 mph   
Max Wind Speed 8 mph   
Max Gust Speed mph   
Visibility 10 miles   
Events Rain   
Averages and records for this station are not official NWS values.
Key: T is trace of precipitation, MM is missing value
Source: NWS Daily Summary
Seasonal Weather Averages
Time(PST)TemperatureDew PointHumidity Pressure Visibility Wind DirectionWind SpeedGust SpeedPrecipitationEvents Conditions
12:23 AM 43.0°F 41.0°F 93% 30.00 in 10.0 miles WSW 6.9 mph - N/A   Overcast
12:42 AM 44.1°F 41.0°F 89% 30.00 in 10.0 miles WSW 6.9 mph - N/A   Mostly Cloudy
12:53 AM 43.0°F 41.0°F 93% 30.01 in 10.0 miles WSW 6.9 mph - N/A   Mostly Cloudy
1:04 AM 44.1°F 42.1°F 93% 30.00 in 10.0 miles West 5.8 mph - N/A   Mostly Cloudy
1:11 AM 44.1°F 42.1°F 93% 30.01 in 10.0 miles WSW 5.8 mph - N/A   Overcast
1:53 AM 44.1°F 43.0°F 96% 30.01 in 10.0 miles SSW 3.5 mph - N/A   Overcast
2:53 AM 44.1°F 42.1°F 93% 30.03 in 10.0 miles WSW 4.6 mph - 0.00 in Rain Light Rain
3:53 AM 44.1°F 42.1°F 93% 30.04 in 10.0 miles WSW 4.6 mph - 0.00 in   Overcast
4:53 AM 44.1°F 42.1°F 93% 30.06 in 10.0 miles SW 5.8 mph - 0.00 in   Overcast
5:53 AM 44.1°F 42.1°F 93% 30.07 in 10.0 miles Calm Calm - N/A   Overcast
6:22 AM 44.1°F 42.1°F 93% 30.07 in 10.0 miles Calm Calm - N/A   Overcast
6:53 AM 44.1°F 42.1°F 93% 30.08 in 10.0 miles Calm Calm - N/A   Overcast
7:00 AM 44.1°F 42.1°F 93% 30.08 in 10.0 miles Calm Calm - N/A   Overcast
7:29 AM 44.1°F 42.1°F 93% 30.08 in 10.0 miles Calm Calm - N/A   Overcast
7:38 AM 44.1°F 42.1°F 93% 30.09 in 10.0 miles Calm Calm - N/A   Overcast
7:46 AM 45.0°F 43.0°F 93% 30.08 in 10.0 miles Calm Calm - N/A   Overcast
7:53 AM 45.0°F 43.0°F 93% 30.09 in 10.0 miles Calm Calm - N/A   Overcast
8:20 AM 45.0°F 43.0°F 93% 30.09 in 10.0 miles Calm Calm - N/A   Overcast
8:53 AM 46.0°F 42.1°F 86% 30.11 in 10.0 miles Calm Calm - N/A   Overcast
9:53 AM 48.9°F 44.1°F 83% 30.12 in 10.0 miles Calm Calm - N/A   Overcast
10:30 AM 52.0°F 44.1°F 74% 30.12 in 10.0 miles East 3.5 mph - N/A   Overcast
10:53 AM 52.0°F 44.1°F 74% 30.13 in 10.0 miles East 5.8 mph - N/A   Mostly Cloudy
11:01 AM 51.1°F 44.1°F 77% 30.13 in 10.0 miles East 4.6 mph - N/A   Scattered Clouds
11:53 AM 53.1°F 44.1°F 71% 30.13 in 10.0 miles East 5.8 mph - N/A   Partly Cloudy
12:53 PM 52.0°F 45.0°F 77% 30.13 in 10.0 miles East 8.1 mph - N/A   Mostly Cloudy
1:53 PM 52.0°F 44.1°F 74% 30.13 in 10.0 miles East 5.8 mph - N/A   Partly Cloudy
2:53 PM 51.1°F 44.1°F 77% 30.13 in 10.0 miles East 4.6 mph - N/A   Overcast
3:53 PM 51.1°F 45.0°F 80% 30.14 in 10.0 miles Calm Calm - N/A   Overcast
4:53 PM 48.0°F 45.0°F 89% 30.15 in 10.0 miles Calm Calm - 0.00 in   Overcast
5:53 PM 46.9°F 45.0°F 93% 30.15 in 10.0 miles Calm Calm - 0.00 in Rain Light Rain
6:53 PM 46.9°F 45.0°F 93% 30.16 in 10.0 miles Calm Calm - 0.00 in   Overcast
7:53 PM 46.0°F 44.1°F 93% 30.16 in 10.0 miles Calm Calm - N/A   Overcast
8:53 PM 45.0°F 44.1°F 97% 30.17 in 10.0 miles WNW 4.6 mph - N/A   Overcast
9:53 PM 48.0°F 44.1°F 86% 30.17 in 10.0 miles West 8.1 mph - 0.00 in Rain Light Rain
10:53 PM 46.0°F 44.1°F 93% 30.18 in 10.0 miles Calm Calm - 0.00 in   Overcast
11:53 PM 46.9°F 44.1°F 90% 30.19 in 10.0 miles SW 4.6 mph - 0.00 in Rain Light Rain
Moon Phase
Nov. 12 Nov. 13 Nov. 20 Nov. 28 Dec. 06
Sunrise:07:17 AM (PST) Moon Rise:05:45 AM (PST)11/12
Sunset:04:38 PM (PST) Moon Set:03:49 PM (PST)11/12

Copyright © 2014 The Weather Underground, Inc.